Date,TemperatureHighF,TemperatureAvgF,TemperatureLowF,DewpointHighF,DewpointAvgF,DewpointLowF,HumidityHigh,HumidityAvg,HumidityLow,PressureMaxIn,PressureMinIn,WindSpeedMaxMPH,WindSpeedAvgMPH,GustSpeedMaxMPH,PrecipitationSumIn
2013-1-1,44.1,41.7,38.1,36.3,33.8,29.3,71,65,60,30.07,29.92,8,3,12,0.00
2013-1-2,38.1,33.3,29.7,29.3,21.0,18.6,61,49,41,30.27,30.02,8,3,14,0.00
2013-1-3,36.1,32.1,27.5,26.0,20.9,16.8,59,52,43,30.29,30.19,11,4,14,0.00
2013-1-4,41.2,37.6,35.1,29.9,26.8,23.5,62,55,47,30.24,30.11,11,6,21,0.00
2013-1-5,40.6,36.2,30.4,34.0,26.3,23.5,76,57,48,30.42,30.17,11,3,17,0.00
2013-1-6,49.5,41.5,35.4,36.9,34.1,30.5,86,68,44,30.33,30.07,6,2,10,0.00
2013-1-7,48.4,40.2,29.1,36.8,32.8,25.3,80,67,51,30.51,30.14,8,2,11,0.00
2013-1-8,54.1,42.2,28.0,39.6,34.5,24.0,89,68,43,30.51,30.42,6,1,9,0.00
2013-1-9,59.0,47.4,36.7,46.9,39.9,31.1,83,68,52,30.45,30.26,7,1,11,0.00
2013-1-10,48.2,43.9,36.9,39.1,35.3,28.1,74,63,53,30.63,30.37,8,2,13,0.00
2013-1-11,52.5,44.2,35.2,51.3,39.5,27.5,94,78,61,30.56,30.12,5,2,13,0.07
2013-1-12,50.2,44.5,42.6,48.7,43.3,41.8,96,94,92,30.22,30.13,4,1,8,0.01
2013-1-13,51.8,46.7,42.1,50.8,45.7,41.3,96,95,90,30.21,30.07,4,1,7,0.01
2013-1-14,56.7,50.8,45.1,55.8,49.1,42.5,97,92,81,30.30,30.03,8,2,13,0.11
2013-1-15,45.1,39.3,36.3,43.0,37.7,33.6,94,92,85,30.38,30.18,11,3,14,0.43
2013-1-16,43.5,40.0,36.3,42.1,38.5,33.8,95,92,87,30.20,29.91,9,2,14,0.31
2013-1-17,42.8,40.8,34.7,41.2,37.7,31.5,93,85,66,30.19,30.02,4,1,9,0.20
2013-1-18,38.7,34.6,27.1,34.0,23.6,17.2,86,55,34,30.59,30.07,11,2,20,0.11
2013-1-19,53.4,42.2,33.8,35.9,29.6,19.6,64,51,33,30.54,30.06,9,3,14,0.02
2013-1-20,53.6,45.9,37.6,40.5,34.5,24.3,63,55,45,30.12,29.85,8,4,15,0.00
2013-1-21,40.5,34.3,26.6,30.7,21.7,13.6,86,50,28,30.20,29.81,12,3,21,0.00
2013-1-22,30.7,23.5,18.9,22.1,8.0,2.6,61,38,28,30.34,29.93,15,7,24,0.07
2013-1-23,24.8,20.2,16.7,5.8,2.9,-0.2,41,32,26,30.40,30.23,10,5,18,0.02
2013-1-24,26.6,22.1,16.7,9.1,5.1,-0.8,55,34,25,30.55,30.15,13,4,20,0.00
2013-1-25,24.8,22.6,19.0,18.9,10.4,3.2,74,47,32,30.55,30.11,8,2,12,0.00
2013-1-26,30.4,26.1,21.0,19.5,16.3,12.4,70,56,44,30.48,30.11,9,4,17,0.01
2013-1-27,36.5,28.3,23.2,23.0,16.5,11.4,66,49,41,30.64,30.46,8,2,11,0.01
2013-1-28,41.7,36.0,28.2,38.2,31.1,20.0,87,76,61,30.57,30.10,5,2,12,0.05
2013-1-29,56.3,45.0,36.3,47.5,41.1,33.2,91,82,62,30.22,30.09,4,1,8,0.01
2013-1-30,59.9,52.2,45.5,54.6,49.5,43.6,94,88,75,30.12,29.47,10,4,23,0.00
2013-1-31,56.7,45.3,33.4,54.8,35.0,17.2,94,60,37,29.98,29.26,16,8,30,0.24
2013-2-1,34.3,29.5,23.7,27.8,17.6,9.8,85,51,33,30.40,29.88,14,6,24,0.06
2013-2-2,30.6,25.8,20.8,26.7,14.1,9.3,87,50,35,30.43,30.09,10,3,18,0.04
2013-2-3,35.2,31.0,27.0,27.4,24.6,22.7,87,70,57,30.10,29.88,10,2,17,0.04
2013-2-4,37.2,30.8,26.6,29.1,18.5,11.6,68,48,36,30.15,29.93,12,5,24,0.01
2013-2-5,44.6,38.3,33.8,33.4,31.1,28.0,84,68,46,30.01,29.91,8,2,11,0.00
2013-2-6,42.8,36.2,26.8,33.1,29.6,20.1,86,70,54,30.42,29.95,8,2,13,0.00
2013-2-7,42.6,34.3,26.4,37.0,24.8,17.6,74,58,43,30.55,30.26,8,3,14,0.00
2013-2-8,46.8,41.8,35.1,45.3,39.6,32.8,95,90,73,30.28,29.62,15,6,24,1.11
2013-2-9,36.9,32.8,28.9,34.0,22.6,16.3,88,56,42,30.42,29.82,15,7,31,0.65
2013-2-10,38.5,31.1,23.0,34.2,19.2,10.2,79,50,38,30.57,30.36,9,2,14,0.01
2013-2-11,52.9,47.4,38.5,51.6,45.5,34.2,95,91,79,30.39,29.74,8,2,11,0.15
2013-2-12,50.4,42.5,34.2,43.6,34.4,28.4,89,66,43,30.05,29.79,7,2,13,0.01
2013-2-13,46.0,38.0,31.8,36.7,31.9,25.3,91,72,56,30.04,29.65,11,4,19,0.28
2013-2-14,46.6,38.4,33.8,38.1,34.1,31.3,89,80,59,30.12,29.75,8,2,11,0.02
2013-2-15,56.7,43.4,35.8,43.1,37.3,32.4,89,73,51,30.13,29.97,5,2,11,0.00
2013-2-16,40.8,36.2,29.5,36.1,32.6,25.0,87,82,63,30.04,29.77,11,4,16,0.09
2013-2-17,34.0,30.6,27.0,23.9,16.9,8.2,65,45,32,30.16,29.76,17,8,29,0.25
2013-2-18,38.3,29.8,23.7,24.8,14.4,8.1,55,39,29,30.41,30.14,15,6,29,0.86
2013-2-19,48.6,42.5,35.6,45.3,36.8,25.7,92,74,55,30.30,29.76,8,3,14,0.07
2013-2-20,40.3,34.5,27.9,32.1,21.4,13.7,71,47,38,30.17,29.85,13,7,23,0.07
2013-2-21,37.0,31.0,25.5,23.3,18.1,12.7,55,46,41,30.36,30.12,12,6,27,0.02
2013-2-22,38.1,33.4,26.8,34.1,25.1,15.8,85,63,50,30.45,30.26,8,3,12,0.04
2013-2-23,49.5,43.9,36.9,48.2,42.5,33.9,95,93,85,30.30,29.80,11,3,16,0.15
2013-2-24,47.8,40.7,35.4,41.6,35.2,24.5,96,76,52,30.11,29.79,9,3,19,0.01
2013-2-25,43.7,36.6,30.0,33.5,27.1,23.6,79,59,46,30.31,30.08,11,2,18,0.01
2013-2-26,49.6,38.9,27.7,48.6,34.9,23.4,95,81,65,30.30,29.69,16,5,27,0.78
2013-2-27,52.9,48.1,44.1,50.6,43.6,37.9,96,80,59,29.74,29.53,11,3,14,0.01
2013-2-28,45.1,41.3,39.0,38.9,36.5,33.1,89,78,62,29.75,29.65,8,2,11,0.14
2013-3-1,44.8,40.9,38.3,36.0,34.4,33.0,76,70,62,29.87,29.72,8,3,14,0.01
2013-3-2,43.5,38.4,35.2,32.8,28.1,25.9,69,57,45,29.88,29.80,9,4,14,0.00
2013-3-3,39.2,35.1,32.5,26.9,23.4,19.2,58,51,42,29.89,29.78,11,5,19,0.00
2013-3-4,41.9,35.8,31.5,29.8,24.1,20.6,57,51,45,30.04,29.87,13,6,27,0.06
2013-3-5,44.8,37.0,32.5,33.2,27.2,22.5,75,58,43,30.11,29.93,8,3,17,0.04
2013-3-6,42.1,39.3,35.2,39.7,36.3,32.3,90,85,70,29.93,29.54,28,12,43,15.90
2013-3-7,45.3,40.2,34.7,35.5,32.8,28.9,86,67,53,30.12,29.86,13,5,29,1.94
2013-3-8,41.2,37.2,32.4,35.9,31.4,25.2,85,73,52,30.23,30.07,9,4,18,0.04
2013-3-9,53.2,42.2,33.1,37.4,31.4,26.2,69,56,37,30.35,30.22,8,2,14,0.01
2013-3-10,49.1,39.4,27.9,40.3,33.5,22.8,88,73,60,30.42,30.34,9,2,14,0.00
2013-3-11,56.1,47.4,39.0,49.0,44.1,37.4,94,85,67,30.36,30.10,8,2,11,0.00
2013-3-12,53.8,49.9,43.0,52.1,47.3,37.7,94,88,74,30.12,29.77,9,4,15,0.17
2013-3-13,50.7,43.5,38.1,37.9,34.9,28.3,82,64,43,30.02,29.91,9,3,14,0.01
2013-3-14,43.7,38.6,34.0,28.2,24.0,21.0,52,44,35,30.10,30.00,14,6,23,0.01
2013-3-15,51.6,42.2,34.3,35.9,28.4,17.0,70,47,33,30.12,29.84,10,4,17,0.01
2013-3-16,48.4,41.5,35.1,37.3,34.3,29.9,82,68,55,29.94,29.73,12,4,21,0.00
2013-3-17,41.9,37.9,35.2,34.2,28.7,21.5,83,61,44,30.33,29.94,8,3,15,0.00
2013-3-18,48.6,39.9,34.9,47.3,31.9,20.0,95,67,41,30.39,29.88,11,4,17,0.22
2013-3-19,52.9,45.1,41.4,48.6,41.1,30.0,96,83,49,29.93,29.77,8,2,12,0.35
2013-3-20,51.3,43.4,36.1,34.6,29.3,25.0,64,47,32,30.03,29.84,11,4,17,0.04
2013-3-21,42.6,35.6,30.6,33.2,25.6,14.9,84,58,34,29.88,29.73,14,4,21,0.04
2013-3-22,43.7,37.0,31.5,30.0,23.9,17.6,54,48,39,30.01,29.88,14,6,21,0.01
2013-3-23,48.9,40.3,34.3,35.9,28.4,23.4,64,52,43,30.04,29.94,8,3,15,0.00
2013-3-24,43.3,38.4,30.0,31.0,26.9,22.1,68,53,39,30.03,29.69,8,2,11,0.00
2013-3-25,38.5,35.9,33.8,36.5,32.9,29.9,90,85,67,29.73,29.45,15,5,21,0.70
2013-3-26,50.7,41.9,36.5,39.1,35.4,33.3,86,71,50,29.97,29.69,8,3,12,0.08
2013-3-27,51.3,44.2,39.9,38.3,35.4,33.6,80,63,46,30.09,29.96,8,3,17,0.00
2013-3-28,49.8,43.6,39.6,38.9,34.7,32.3,69,62,52,30.20,30.07,8,4,14,0.00
2013-3-29,51.8,45.5,40.5,38.6,35.6,32.5,68,60,38,30.25,30.14,6,2,11,0.00
2013-3-30,59.2,46.8,37.8,39.1,35.9,31.1,82,59,25,30.26,30.17,6,2,7,0.00
2013-3-31,54.1,47.3,40.6,48.6,42.8,38.0,94,81,51,30.21,29.77,8,3,17,0.08
2013-4-1,65.5,51.9,44.4,52.5,44.4,29.2,91,71,43,29.98,29.73,8,2,13,0.01
2013-4-2,48.7,43.3,37.4,29.2,24.2,19.5,44,35,29,30.18,29.98,9,4,16,0.01
2013-4-3,50.9,43.5,37.9,31.2,24.2,19.5,45,34,26,30.38,30.17,9,4,15,0.00
2013-4-4,46.9,41.0,35.1,34.6,25.1,17.1,81,42,27,30.47,30.17,8,3,12,0.04
2013-4-5,58.3,45.7,37.8,44.6,39.0,34.8,94,73,35,30.18,29.83,8,2,14,0.69
2013-4-6,50.7,43.9,38.5,39.4,28.7,20.3,67,45,25,30.38,30.02,11,3,17,0.01
2013-4-7,55.0,47.7,35.4,45.7,40.0,28.7,79,68,59,30.38,30.08,9,3,13,0.00
2013-4-8,73.4,59.8,49.3,54.7,50.2,44.3,79,64,40,30.15,30.05,6,2,11,0.00
2013-4-9,83.1,66.4,56.1,61.5,55.1,50.7,80,61,39,30.12,30.00,6,2,10,0.00
2013-4-10,87.4,69.8,57.2,65.0,58.7,53.2,84,63,37,30.02,29.84,9,3,14,0.00
2013-4-11,78.3,59.1,48.0,63.9,54.6,47.8,99,83,53,29.98,29.88,15,5,24,0.00
2013-4-12,65.8,55.2,48.4,64.3,54.5,48.2,99,97,85,29.92,29.64,11,4,17,0.09
2013-4-13,63.5,52.6,47.1,49.6,46.8,44.7,99,78,42,30.03,29.71,7,3,12,0.01
2013-4-14,63.9,53.6,42.3,52.4,46.7,42.1,99,74,42,30.22,30.00,7,1,11,0.01
2013-4-15,57.0,52.1,47.8,48.9,46.8,43.1,89,77,65,30.41,30.19,12,4,21,0.01
2013-4-16,66.2,58.2,50.9,58.2,53.4,47.6,92,80,67,30.41,30.20,7,3,11,0.01
2013-4-17,71.2,59.1,52.3,64.1,53.8,45.6,97,79,56,30.34,30.17,10,2,14,0.00
2013-4-18,68.0,58.4,53.6,61.3,55.1,46.7,99,86,70,30.34,30.13,6,2,11,0.00
2013-4-19,67.6,61.0,56.1,63.5,59.6,55.9,99,94,80,30.14,29.75,11,4,17,0.08
2013-4-20,63.1,54.4,48.2,62.5,44.7,34.5,99,65,41,30.36,29.77,9,4,16,0.48
2013-4-21,53.8,46.2,37.0,37.2,32.2,26.5,75,48,34,30.66,30.33,10,3,14,0.01
2013-4-22,52.0,46.6,37.2,44.2,40.4,30.6,87,73,63,30.66,30.43,16,6,21,0.01
2013-4-23,52.0,47.7,44.4,46.6,44.2,41.4,92,84,72,30.46,30.16,12,5,21,0.01
2013-4-24,60.6,52.7,41.5,54.9,49.7,40.2,96,87,73,30.20,29.92,4,2,9,0.00
2013-4-25,61.5,54.7,47.8,55.5,43.9,37.8,91,60,39,30.37,29.95,10,3,20,0.00
2013-4-26,65.8,56.1,47.1,50.4,45.7,42.5,90,63,33,30.49,30.34,6,2,11,0.00
2013-4-27,66.2,56.0,45.3,50.6,45.4,41.2,93,62,35,30.49,30.36,5,1,8,0.00
2013-4-28,66.9,55.6,42.3,53.2,45.0,38.4,99,65,27,30.38,30.24,5,1,8,0.00
2013-4-29,56.8,54.7,52.5,56.6,53.8,50.7,99,96,77,30.25,30.16,5,2,11,0.64
2013-4-30,61.9,55.4,51.3,55.0,52.0,48.0,98,86,66,30.34,30.15,11,5,17,0.26
2013-5-1,61.7,53.1,47.5,50.9,47.5,42.9,96,77,40,30.49,30.31,11,5,21,0.01
2013-5-2,63.3,54.1,44.6,52.3,47.3,44.0,99,75,44,30.50,30.37,8,3,14,0.00
2013-5-3,56.5,51.8,46.2,48.2,45.2,42.9,91,73,53,30.47,30.37,11,5,21,0.00
2013-5-4,61.9,52.4,44.6,49.7,45.6,42.3,96,73,51,30.41,30.27,11,4,17,0.00
2013-5-5,58.5,50.4,45.5,48.1,44.2,40.4,94,74,57,30.30,30.23,10,5,18,0.00
2013-5-6,60.4,53.1,47.7,55.3,51.6,46.6,99,93,77,30.23,30.15,11,5,21,0.00
2013-5-7,60.6,56.2,52.0,59.1,55.3,51.6,99,96,86,30.15,30.02,11,5,18,0.06
2013-5-8,70.2,60.3,55.0,62.7,57.0,54.4,99,87,58,30.09,29.99,4,1,8,0.06
2013-5-9,73.9,62.2,55.9,61.2,58.0,55.5,99,84,56,30.05,29.95,5,1,8,0.08
2013-5-10,78.3,67.7,58.1,64.7,60.3,56.8,96,74,50,30.09,29.94,4,1,6,0.01
2013-5-11,71.6,65.1,60.4,67.3,62.3,59.1,99,88,74,29.99,29.76,7,1,14,0.26
2013-5-12,68.4,62.5,57.6,61.5,51.6,38.1,97,64,30,30.06,29.74,11,3,19,0.06
2013-5-13,61.5,56.4,52.2,41.8,36.7,31.1,45,37,29,30.18,30.03,10,4,19,0.01
2013-5-14,61.3,53.4,45.5,49.7,39.4,31.1,79,50,33,30.25,30.12,8,2,14,0.00
2013-5-15,72.1,62.5,54.3,63.2,55.5,47.4,86,73,59,30.17,29.76,4,1,8,0.00
2013-5-16,83.8,73.2,64.6,67.1,62.8,56.6,88,66,33,29.92,29.76,7,1,11,0.00
2013-5-17,78.6,67.8,59.0,62.4,56.5,49.6,90,62,33,30.25,29.90,8,2,17,0.00
2013-5-18,69.6,62.5,58.1,60.3,57.3,50.4,99,79,61,30.35,30.23,4,1,8,0.18
2013-5-19,66.4,61.7,58.6,64.6,60.9,58.4,99,97,89,30.29,30.17,4,1,10,0.25
2013-5-20,81.5,69.9,61.9,72.7,66.4,61.4,99,87,67,30.20,30.04,4,1,6,0.01
2013-5-21,80.6,71.9,64.8,72.3,68.2,64.3,99,86,66,30.08,29.94,4,1,8,0.00
2013-5-22,82.2,71.6,66.6,73.6,68.3,65.4,99,87,66,30.02,29.92,5,1,11,0.00
2013-5-23,75.2,68.9,63.7,70.2,66.6,63.0,99,91,77,29.99,29.82,4,2,9,0.04
2013-5-24,66.6,59.5,50.4,66.0,56.4,43.0,99,87,63,30.10,29.76,9,3,19,0.20
2013-5-25,64.6,57.5,50.5,47.5,44.7,41.0,73,55,38,30.15,30.04,13,5,24,0.04
2013-5-26,71.4,62.0,55.2,55.3,48.1,40.8,82,52,38,30.26,30.12,8,3,18,0.01
2013-5-27,71.4,62.0,50.4,56.3,51.1,43.7,89,63,29,30.33,30.23,5,1,7,0.00
2013-5-28,68.9,62.4,55.9,63.9,59.4,53.5,98,87,77,30.29,30.15,3,1,7,0.14
2013-5-29,88.3,74.3,62.8,72.5,66.8,59.9,91,74,50,30.18,30.12,5,1,9,0.01
2013-5-30,89.2,76.9,68.7,73.4,68.6,64.7,88,72,52,30.26,30.15,5,1,8,0.00
2013-5-31,86.0,76.3,66.4,72.3,68.8,64.8,95,75,55,30.22,30.09,4,1,8,0.00
2013-6-1,83.8,75.7,68.7,73.7,69.5,65.0,93,78,62,30.11,30.00,4,1,8,0.00
2013-6-2,81.7,74.0,66.6,70.8,68.2,65.3,96,79,61,30.03,29.89,8,1,12,0.06
2013-6-3,73.9,70.0,65.8,71.9,69.1,65.6,99,96,88,29.95,29.85,3,0,7,0.33
2013-6-4,76.1,69.0,60.8,69.2,58.2,51.1,98,64,40,30.17,29.93,9,3,17,0.01
2013-6-5,77.4,67.4,57.7,64.0,58.5,52.6,96,71,42,30.25,30.14,6,1,9,0.01
2013-6-6,75.0,66.0,54.7,67.3,62.0,54.0,99,85,60,30.18,29.98,4,1,9,0.00
2013-6-7,70.9,68.1,65.7,70.4,67.7,64.2,99,98,93,29.98,29.55,5,1,12,0.86
2013-6-8,76.8,69.2,64.0,71.8,67.1,63.4,99,91,78,30.12,29.55,8,2,17,0.38
2013-6-9,81.3,71.9,63.1,69.8,66.3,62.5,99,81,51,30.25,30.12,4,1,7,0.01
2013-6-10,73.6,69.2,66.2,72.9,68.7,65.3,99,98,90,30.20,29.87,3,1,9,0.92
2013-6-11,84.2,74.6,67.5,72.4,69.8,67.0,99,83,55,29.88,29.77,7,3,11,0.06
2013-6-12,84.7,76.2,70.3,72.8,69.7,64.9,90,76,58,29.89,29.84,7,2,12,0.01
2013-6-13,86.7,71.7,64.2,74.9,68.4,63.1,99,88,54,29.89,29.47,8,2,14,0.35
2013-6-14,73.2,63.4,56.8,66.0,58.9,55.5,97,82,53,29.98,29.53,11,4,24,0.44
2013-6-15,81.3,70.7,60.8,66.8,63.8,60.1,99,76,48,30.09,29.98,4,1,7,0.27
2013-6-16,86.0,73.9,64.4,72.7,68.5,63.4,98,81,55,30.07,29.91,11,1,16,0.22
2013-6-17,86.9,75.4,69.1,75.2,71.3,67.9,99,85,55,30.00,29.93,4,1,8,0.24
2013-6-18,78.3,69.8,64.8,74.4,68.2,63.6,99,93,83,29.97,29.81,11,2,20,0.61
2013-6-19,75.4,67.8,59.7,65.6,62.0,56.0,97,79,43,30.21,29.88,8,2,11,0.11
2013-6-20,79.0,68.3,55.6,65.8,58.3,53.1,99,69,34,30.34,30.21,4,0,5,0.00
2013-6-21,79.2,68.4,55.9,66.3,61.4,55.1,98,76,47,30.36,30.30,4,1,6,0.00
2013-6-22,81.7,70.0,57.6,71.0,63.3,57.3,99,77,46,30.32,30.22,4,1,6,0.00
2013-6-23,81.5,74.0,64.6,75.6,70.1,61.7,95,85,76,30.26,30.12,5,1,11,0.00
2013-6-24,90.7,79.8,72.3,78.6,74.5,71.3,98,82,56,30.17,30.05,5,1,9,0.00
2013-6-25,93.0,80.6,71.2,78.8,74.1,70.5,98,79,51,30.08,29.92,4,2,9,0.00
2013-6-26,89.6,80.2,72.7,78.6,73.4,68.5,95,76,61,29.95,29.83,6,1,11,0.01
2013-6-27,85.5,77.4,72.9,76.8,73.5,71.7,97,86,67,29.87,29.65,5,2,10,0.05
2013-6-28,88.3,78.8,71.4,77.1,73.9,70.3,98,83,62,29.68,29.54,8,1,14,0.09
2013-6-29,84.6,75.5,69.4,76.8,72.1,68.3,99,87,69,29.77,29.55,4,1,8,0.17
2013-6-30,82.0,74.5,70.9,75.7,72.8,70.1,99,93,76,29.94,29.76,4,1,8,0.04
2013-7-1,77.7,73.6,72.0,75.4,72.5,71.1,99,96,86,30.08,29.93,4,1,10,0.31
2013-7-2,82.0,75.2,71.8,76.5,72.9,70.8,98,91,75,30.28,30.08,8,1,11,0.02
2013-7-3,84.2,76.7,70.7,78.0,73.9,69.3,99,89,75,30.32,30.24,4,1,8,0.24
2013-7-4,88.3,79.3,72.1,78.0,74.7,71.2,98,84,64,30.33,30.25,4,1,10,0.01
2013-7-5,89.1,80.3,72.7,78.2,74.8,71.2,98,81,62,30.30,30.19,5,1,8,0.00
2013-7-6,94.8,83.0,76.3,79.7,76.5,73.8,96,79,54,30.23,30.12,5,2,9,0.00
2013-7-7,93.6,83.1,76.5,80.4,76.4,72.8,94,77,58,30.16,30.03,5,2,11,0.00
2013-7-8,89.1,80.5,75.0,77.5,74.1,71.4,88,77,59,30.14,30.07,5,2,10,0.02
2013-7-9,87.8,79.3,73.0,78.5,75.0,71.3,98,84,63,30.14,30.06,4,1,8,0.01
2013-7-10,87.4,78.5,70.7,79.5,74.9,69.9,99,87,68,30.09,29.91,4,1,8,0.11
2013-7-11,79.5,74.6,70.7,75.7,72.5,69.2,98,92,82,29.97,29.89,7,1,14,0.65
2013-7-12,73.0,70.9,68.5,72.3,70.3,68.3,99,98,95,30.07,29.93,8,1,12,2.42
2013-7-13,86.5,76.5,67.6,79.6,73.5,67.4,99,89,67,30.35,30.07,4,1,8,0.01
2013-7-14,88.5,79.1,72.0,78.5,75.3,71.3,99,87,61,30.39,30.33,4,1,7,0.00
2013-7-15,92.5,80.6,72.1,79.4,75.5,71.2,99,83,56,30.35,30.20,4,1,7,0.00
2013-7-16,92.5,83.8,75.4,79.6,75.0,70.2,96,72,51,30.23,30.19,6,1,10,0.00
2013-7-17,95.7,83.8,74.5,81.6,75.2,71.6,95,73,43,30.23,30.14,3,1,5,0.00
2013-7-18,96.6,84.2,74.8,80.9,77.3,73.9,96,77,53,30.15,30.03,4,1,8,0.00
2013-7-19,95.2,84.6,77.5,81.5,77.5,74.0,92,76,56,30.06,29.92,4,1,8,0.00
2013-7-20,92.1,83.0,77.5,80.7,77.3,75.0,92,80,58,29.95,29.83,7,2,12,0.00
2013-7-21,89.8,79.3,72.1,78.8,74.2,70.9,97,82,55,29.99,29.91,4,1,8,0.06
2013-7-22,88.9,78.6,72.1,78.5,74.8,71.2,99,86,62,29.97,29.82,3,0,6,0.00
2013-7-23,80.1,27.8,73.2,76.7,-35.0,-99.9,99,36,87,29.83,29.65,4,0,8,0.00
2013-7-24,-200.0,0.0,200.0,-99.9,-99.9,-99.9,0,0,100,29.93,29.70,916,0,916,0.00
2013-7-25,-200.0,0.0,200.0,-99.9,-99.9,-99.9,0,0,100,30.08,29.91,916,0,916,0.00
2013-7-26,-200.0,0.0,200.0,-99.9,-99.9,-99.9,0,0,100,30.11,29.47,916,0,916,0.00
2013-7-27,-200.0,0.0,200.0,-99.9,-99.9,-99.9,0,0,100,29.94,29.65,916,0,916,0.00
2013-7-28,-200.0,0.0,200.0,-99.9,-99.9,-99.9,0,0,100,29.83,29.65,916,0,916,0.00
2013-7-29,-200.0,0.0,200.0,-99.9,-99.9,-99.9,0,0,100,29.99,29.80,916,0,916,0.00
2013-7-30,-200.0,0.0,200.0,-99.9,-99.9,-99.9,0,0,100,30.05,29.86,916,0,916,0.00
2013-7-31,-200.0,0.0,200.0,-99.9,-99.9,-99.9,0,0,100,30.02,29.91,916,0,916,0.00
2013-8-1,-200.0,0.0,200.0,-99.9,-99.9,-99.9,0,0,100,29.90,29.67,916,0,916,0.00
2013-8-2,-200.0,0.0,200.0,-99.9,-99.9,-99.9,0,0,100,29.81,29.67,916,0,916,0.00
2013-8-3,-200.0,0.0,200.0,-99.9,-99.9,-99.9,0,0,100,29.82,29.77,916,0,916,0.00
2013-8-4,-200.0,0.0,200.0,-99.9,-99.9,-99.9,0,0,100,29.84,29.72,916,0,916,0.00
2013-8-5,-200.0,0.0,200.0,-99.9,-99.9,-99.9,0,0,100,29.94,29.84,916,0,916,0.00
2013-8-6,-200.0,0.0,200.0,-99.9,-99.9,-99.9,0,0,100,29.98,29.90,916,0,916,0.00
2013-8-7,-200.0,0.0,200.0,-99.9,-99.9,-99.9,0,0,100,29.99,29.79,916,0,916,0.00
2013-8-8,-200.0,0.0,200.0,-99.9,-99.9,-99.9,0,0,100,29.93,29.73,916,0,916,0.00
2013-8-9,-200.0,0.0,200.0,-99.9,-99.9,-99.9,0,0,100,29.88,29.61,916,0,916,0.00
2013-8-10,-200.0,0.0,200.0,-99.9,-99.9,-99.9,0,0,100,29.92,29.70,916,0,916,0.00
2013-8-11,-200.0,0.0,200.0,-99.9,-99.9,-99.9,0,0,100,29.97,29.81,916,0,916,0.00
2013-8-12,-200.0,0.0,200.0,-99.9,-99.9,-99.9,0,0,100,29.90,29.78,916,0,916,0.00
2013-8-13,-200.0,0.0,200.0,-99.9,-99.9,-99.9,0,0,100,29.78,29.59,916,0,916,0.00
2013-8-14,-200.0,0.0,200.0,-99.9,-99.9,-99.9,0,0,100,29.92,29.61,916,0,916,0.00
2013-8-15,-200.0,0.0,200.0,-99.9,-99.9,-99.9,0,0,100,30.03,29.77,916,0,916,0.00
2013-8-16,77.5,24.8,62.8,62.9,-42.2,-99.9,84,25,53,30.03,27.10,2,0,4,0.00
2013-8-17,79.0,69.7,60.4,68.3,62.7,58.0,92,74,58,30.02,29.69,9,2,12,0.00
2013-8-18,74.8,71.9,69.1,69.2,65.8,61.0,86,77,64,29.99,29.88,8,2,13,0.00
2013-8-19,76.8,71.9,68.5,70.0,67.6,65.0,93,83,69,29.92,29.83,5,2,8,0.00
2013-8-20,84.2,74.2,70.0,73.3,70.6,68.3,97,86,60,29.93,29.84,5,1,8,0.00
2013-8-21,87.8,76.5,70.0,77.4,72.6,69.5,99,86,63,29.97,29.86,4,1,6,0.00
2013-8-22,85.6,74.9,69.1,78.3,72.1,67.6,99,89,68,29.87,29.68,8,1,14,0.12
2013-8-23,81.3,75.3,67.3,73.3,68.6,62.5,99,77,49,29.84,29.65,7,2,11,0.05
2013-8-24,78.1,69.7,60.8,70.0,65.0,60.4,98,83,53,30.10,29.84,11,2,17,0.02
2013-8-25,79.0,68.0,56.7,66.3,61.1,53.7,99,76,33,30.17,30.05,6,1,8,0.01
2013-8-26,84.6,74.7,67.1,71.7,66.7,61.1,85,71,55,30.06,29.75,8,3,11,0.00
2013-8-27,86.7,78.1,72.9,75.4,71.8,68.4,89,77,59,29.75,29.42,7,3,12,0.00
2013-8-28,84.6,73.7,70.7,78.1,72.3,70.2,99,94,75,29.68,29.58,4,0,8,0.46
2013-8-29,78.4,73.4,68.0,73.8,70.2,67.1,99,88,68,29.79,29.59,9,3,17,0.01
2013-8-30,82.4,73.6,66.4,73.6,70.2,66.1,99,88,66,29.81,29.68,5,1,8,0.00
2013-8-31,85.8,77.1,71.1,77.3,73.2,69.1,97,86,70,29.71,29.59,7,1,11,0.00
2013-9-1,86.7,78.7,74.7,78.6,75.4,73.5,99,88,68,29.63,29.55,5,1,8,0.05
2013-9-2,86.9,77.9,74.1,77.1,75.0,73.4,99,89,65,29.57,29.50,4,1,7,0.01
2013-9-3,84.7,78.0,73.2,76.6,71.5,61.8,99,78,53,29.67,29.49,8,2,14,0.00
2013-9-4,80.6,73.0,67.3,67.5,64.0,61.2,83,68,50,29.81,29.67,8,2,11,0.00
2013-9-5,83.8,75.3,68.7,70.2,65.6,51.2,85,67,44,29.87,29.61,8,3,16,0.00
2013-9-6,75.6,66.3,57.4,57.9,54.4,48.8,89,59,44,29.99,29.62,8,3,12,0.00
2013-9-7,79.2,67.3,54.3,65.5,59.5,53.5,97,73,41,29.91,29.70,4,1,8,0.00
2013-9-8,84.0,74.7,68.2,73.2,67.8,56.2,91,75,55,29.81,29.40,8,2,11,0.00
2013-9-9,77.2,69.1,57.6,67.2,61.5,52.4,89,72,55,29.97,29.81,8,2,14,0.00
2013-9-10,84.4,76.3,70.5,75.3,71.8,67.3,94,83,68,29.96,29.86,4,1,9,0.00
2013-9-11,90.3,79.2,72.3,77.5,73.3,70.3,95,79,59,29.92,29.79,4,1,6,0.00
2013-9-12,87.3,77.2,71.2,76.2,72.9,70.6,98,84,64,29.79,29.49,4,1,10,0.17
2013-9-13,79.0,73.0,66.6,71.4,66.0,57.0,98,76,50,29.63,29.43,8,3,13,0.17
2013-9-14,68.7,63.3,55.6,57.2,53.8,50.9,80,65,52,29.91,29.62,11,3,19,0.00
2013-9-15,73.8,62.0,47.5,61.9,54.9,46.8,98,74,47,30.01,29.66,5,1,8,0.00
2013-9-16,73.0,67.4,59.9,66.9,62.1,56.5,89,79,63,29.96,29.81,8,2,13,0.01
2013-9-17,64.4,58.6,50.9,56.5,49.8,45.3,83,66,52,30.16,29.96,11,4,17,0.01
2013-9-18,70.9,57.3,47.8,55.9,50.4,45.7,92,74,48,30.11,29.97,5,1,8,0.00
2013-9-19,75.0,61.4,49.3,60.4,55.0,49.1,99,77,43,29.97,29.86,6,1,8,0.00
2013-9-20,77.2,65.4,54.1,64.4,59.6,53.1,97,78,50,29.87,29.54,4,1,8,0.00
2013-9-21,79.5,68.0,56.8,70.7,64.0,56.6,99,86,44,29.78,29.46,4,1,6,0.05
2013-9-22,73.6,67.3,59.2,68.5,59.5,50.3,99,73,45,29.67,29.43,8,3,13,0.37
2013-9-23,67.5,59.9,52.9,53.2,49.1,45.0,74,60,47,29.81,29.67,11,4,16,0.01
2013-9-24,69.6,60.1,52.5,58.1,51.5,46.7,78,67,51,29.84,29.56,8,2,12,0.00
2013-9-25,71.1,62.5,52.5,61.7,56.6,48.7,97,77,62,29.71,29.65,6,2,8,0.00
2013-9-26,74.3,63.0,54.9,61.4,57.8,54.2,99,81,51,29.83,29.68,7,1,11,0.00
2013-9-27,71.8,63.2,55.2,59.0,56.8,54.0,96,76,50,30.00,29.83,8,2,11,0.00
2013-9-28,71.2,64.4,58.3,59.7,56.9,54.1,90,72,52,30.05,29.96,9,3,17,0.00
2013-9-29,70.9,62.3,55.4,60.1,55.9,52.9,98,76,51,29.96,29.82,9,2,14,0.00
2013-9-30,72.7,61.3,52.7,62.1,56.5,50.6,99,81,58,29.83,29.75,6,1,9,0.00
2013-10-1,78.3,66.6,55.2,66.4,62.0,54.6,99,83,56,29.82,29.71,6,1,8,0.00
2013-10-2,82.9,71.1,62.4,69.1,65.5,61.5,99,80,50,29.82,29.52,4,1,7,0.00
2013-10-3,79.9,70.7,64.2,69.6,66.4,63.5,99,84,58,29.87,29.55,6,1,11,0.00
2013-10-4,84.6,70.4,61.5,70.8,66.5,61.1,99,86,52,29.84,29.51,4,1,5,0.00
2013-10-5,84.4,70.8,65.8,73.7,68.5,65.6,99,91,63,29.83,29.53,6,1,11,0.00
2013-10-6,83.3,72.6,65.8,73.7,69.4,65.6,99,88,64,29.82,29.49,4,1,8,0.00
2013-10-7,78.1,70.2,63.0,73.2,67.6,1.1,99,90,65,29.77,29.34,10,2,14,0.37
2013-10-8,64.9,61.1,58.1,55.9,52.0,49.6,76,65,56,30.02,29.53,12,4,18,0.09
2013-10-9,63.1,60.5,56.3,58.2,55.4,51.2,97,79,69,30.03,29.67,15,6,24,0.13
2013-10-10,65.1,62.3,58.6,64.9,61.8,58.2,99,98,97,29.92,29.43,18,7,25,1.34
2013-10-11,67.8,65.0,63.9,67.1,64.7,63.2,99,99,97,29.73,29.62,14,7,24,1.00
2013-10-12,66.2,63.3,61.5,64.4,62.5,61.1,99,96,85,29.89,29.71,12,7,21,0.73
2013-10-13,65.7,62.9,60.1,63.4,59.5,57.1,98,86,75,30.07,29.80,17,6,24,0.06
2013-10-14,68.7,60.0,53.6,60.4,56.6,52.5,97,86,67,30.07,29.74,9,3,12,0.01
2013-10-15,69.3,60.0,51.4,60.5,55.9,51.2,99,84,58,30.00,29.58,8,3,11,0.00
2013-10-16,68.5,62.9,58.6,64.0,61.4,58.4,99,94,81,29.84,29.44,4,1,9,0.00
2013-10-17,75.2,66.0,61.2,68.6,64.0,60.7,99,92,74,29.70,29.26,4,1,8,0.00
2013-10-18,68.5,63.4,59.4,65.8,53.4,49.6,93,64,46,29.78,29.26,9,4,15,0.00
2013-10-19,63.7,58.2,48.2,62.1,54.5,47.1,98,85,60,29.77,29.35,11,1,16,0.02
2013-10-20,63.3,58.4,52.5,59.4,46.5,42.8,89,57,40,29.87,29.59,9,3,19,0.02
2013-10-21,67.3,57.8,46.0,54.1,49.1,43.3,91,68,36,29.93,29.76,5,1,8,0.00
2013-10-22,68.4,61.0,54.5,59.9,54.2,46.1,89,73,53,29.76,29.34,7,1,11,0.00
2013-10-23,57.6,51.5,47.1,51.2,45.0,38.6,99,74,49,29.59,29.37,9,3,18,0.25
2013-10-24,55.2,49.7,46.9,43.4,39.2,33.7,75,59,42,29.85,29.58,11,5,17,0.01
2013-10-25,55.4,49.5,44.6,42.7,39.6,36.4,72,61,51,30.06,29.85,8,3,15,0.00
2013-10-26,60.6,51.7,44.2,44.0,41.0,38.6,77,59,37,30.05,29.71,10,3,19,0.00
2013-10-27,60.6,54.4,44.2,45.1,43.2,40.0,83,58,39,29.92,29.47,11,4,18,0.00
2013-10-28,66.7,51.4,37.4,53.9,45.2,35.8,92,75,47,30.03,29.91,4,0,6,0.00
2013-10-29,63.5,54.0,46.2,54.1,49.1,44.3,96,80,64,30.12,29.77,8,2,11,0.00
2013-10-30,60.1,54.6,48.4,58.0,53.8,48.2,99,96,84,30.09,29.70,2,0,5,0.02
2013-10-31,70.5,61.1,51.6,64.3,58.9,51.4,99,91,72,29.97,29.38,4,1,8,0.01
2013-11-1,68.7,65.9,62.8,65.1,63.8,60.7,99,91,84,29.63,29.39,5,2,11,0.04
2013-11-2,68.9,61.6,56.5,63.4,56.6,49.1,99,81,51,29.59,29.33,5,1,11,0.05
2013-11-3,56.8,51.1,38.8,49.8,40.9,27.8,82,61,32,30.20,29.33,10,4,18,0.01
2013-11-4,49.6,41.3,33.4,37.9,31.8,22.9,82,60,48,30.37,30.19,13,4,20,0.00
2013-11-5,61.5,49.6,39.9,50.4,44.8,36.5,95,79,57,30.36,30.23,6,1,10,0.00
2013-11-6,64.9,54.4,41.2,59.7,51.7,41.0,99,89,66,30.24,29.85,4,1,7,0.00
2013-11-7,62.1,57.8,50.4,61.6,55.3,40.1,99,90,58,29.86,28.67,7,2,16,0.18
2013-11-8,53.2,48.0,44.6,42.0,36.0,32.5,66,54,42,30.04,29.75,9,4,17,0.01
2013-11-9,54.3,48.1,43.2,42.7,36.5,32.0,68,55,41,30.11,29.81,7,2,14,0.00
2013-11-10,62.4,53.6,49.1,49.9,43.3,36.6,71,60,45,29.92,29.65,11,5,18,0.00
2013-11-11,55.4,49.7,45.1,44.3,39.6,35.8,71,60,44,30.05,29.80,9,3,15,0.00
2013-11-12,52.0,42.8,35.6,44.9,32.9,20.5,85,59,38,30.09,29.48,15,6,25,0.00
2013-11-13,42.6,37.4,32.2,30.5,23.0,17.9,59,44,26,30.19,29.83,16,5,24,0.00
2013-11-14,58.1,46.6,38.8,40.8,35.1,26.7,74,56,29,30.14,29.76,9,4,16,0.00
2013-11-15,55.9,48.7,43.0,42.9,40.4,37.9,85,66,47,30.06,29.71,7,2,11,0.00
2013-11-16,53.2,49.4,43.9,51.5,48.3,40.8,99,95,79,30.10,29.75,6,1,8,0.29
2013-11-17,65.3,56.7,48.2,62.3,55.9,48.0,99,96,80,30.00,29.32,4,1,9,0.01
2013-11-18,63.3,57.8,52.0,61.9,51.2,40.2,99,74,48,29.60,29.21,8,3,15,0.14
2013-11-19,52.3,46.5,39.7,41.7,35.0,29.0,62,54,48,30.10,29.58,9,4,19,0.01
2013-11-20,46.4,38.4,34.0,34.8,29.2,24.0,74,60,49,30.31,29.85,11,4,16,0.00
2013-11-21,57.2,45.7,34.3,48.7,40.3,29.6,94,76,57,30.31,29.90,8,1,10,0.00
2013-11-22,58.6,53.7,45.5,55.2,52.2,44.7,99,93,85,30.15,29.73,5,1,8,0.07
2013-11-23,53.2,46.3,37.0,52.8,37.4,24.2,99,64,43,29.85,29.72,11,4,22,0.08
2013-11-24,36.9,30.5,28.2,24.4,12.4,7.4,50,34,24,30.24,29.83,15,6,30,0.01
2013-11-25,37.8,31.7,27.0,28.6,19.3,14.6,61,48,36,30.33,30.15,8,3,14,0.01
2013-11-26,58.1,44.1,37.8,57.7,37.4,26.3,99,72,49,30.16,29.37,9,3,15,0.28
2013-11-27,59.5,45.5,34.9,59.3,43.4,23.5,99,90,49,29.67,29.14,14,6,24,0.94
2013-11-28,39.4,35.0,32.4,26.0,22.9,21.1,58,50,43,30.26,29.68,17,5,26,0.01
2013-11-29,43.5,35.1,26.1,31.4,25.1,20.1,77,57,44,30.48,30.25,9,2,13,0.00
2013-11-30,44.4,35.4,25.9,36.6,27.8,17.3,81,65,55,30.47,30.11,8,3,11,0.00
2013-12-1,47.5,39.9,34.3,39.1,34.8,31.2,88,77,57,30.11,29.79,4,1,8,0.00
2013-12-2,51.3,39.5,30.2,42.8,35.4,28.8,99,81,65,29.80,29.38,3,0,4,0.00
2013-12-3,51.4,42.9,35.4,47.2,39.8,30.5,97,85,64,29.78,29.37,4,1,8,0.00
2013-12-4,55.9,48.9,38.8,53.0,46.4,38.5,99,89,69,29.87,29.77,4,0,7,0.00
2013-12-5,58.1,53.1,48.2,56.2,52.5,48.0,99,97,89,29.88,29.47,4,2,8,0.00
2013-12-6,62.4,51.8,40.8,60.8,51.3,40.6,99,98,86,29.89,29.42,10,3,14,0.26
2013-12-7,43.7,39.1,33.1,40.8,34.8,26.4,99,80,62,30.27,29.54,11,4,17,0.27
2013-12-8,43.3,33.2,29.7,43.0,28.2,20.7,99,77,57,30.34,30.00,9,4,14,0.33
2013-12-9,45.9,39.6,37.0,45.3,39.0,35.5,99,97,92,30.01,29.79,8,3,11,0.94
2013-12-10,37.2,35.9,33.8,35.7,32.2,22.2,94,83,46,29.98,29.65,11,4,17,0.18
2013-12-11,41.4,36.5,29.3,29.4,24.6,19.9,76,51,44,30.17,29.87,11,4,16,0.01
2013-12-12,35.2,29.7,27.0,27.2,18.4,11.8,80,52,31,30.15,30.00,14,5,22,0.00
2013-12-13,41.9,35.9,30.4,28.5,24.5,17.9,69,53,39,30.10,29.98,11,5,17,0.00
2013-12-14,55.2,41.7,31.8,54.6,37.4,25.9,99,80,60,30.14,29.39,9,2,14,0.50
2013-12-15,55.2,41.3,36.0,54.6,37.1,25.6,99,81,55,29.70,29.15,12,4,17,0.38
2013-12-16,38.1,33.2,29.5,30.6,22.4,17.3,68,54,43,29.99,29.69,13,4,18,0.01
2013-12-17,49.5,38.4,30.4,43.9,32.5,16.9,92,73,44,29.96,29.68,8,3,12,0.01
2013-12-18,40.5,35.1,30.2,30.7,26.8,24.0,93,64,44,30.00,29.68,10,2,18,0.06
2013-12-19,53.1,42.8,27.3,38.9,33.4,21.8,84,61,46,30.00,29.85,8,2,14,0.01
2013-12-20,55.9,50.5,45.5,50.6,42.8,35.8,87,68,55,29.90,29.79,8,3,12,0.00
2013-12-21,66.0,57.0,50.5,59.4,51.3,45.8,94,77,57,29.82,29.48,8,3,15,0.00
2013-12-22,67.1,58.6,52.0,62.4,56.8,49.6,98,92,76,29.80,29.44,11,3,17,0.11
2013-12-23,60.6,53.2,41.9,60.4,52.3,38.6,99,96,84,29.92,29.44,6,2,14,0.21
2013-12-24,42.4,37.9,28.8,38.6,27.9,15.9,85,58,39,30.16,29.88,12,5,24,0.02
2013-12-25,32.7,27.4,23.9,19.1,14.5,10.4,70,46,29,30.31,29.90,10,3,17,0.01
2013-12-26,43.5,34.0,23.5,33.0,27.1,17.9,85,69,43,30.17,29.85,5,1,11,0.00
2013-12-27,46.8,39.1,28.8,33.0,29.2,24.7,83,59,36,30.20,29.83,7,2,11,0.00
2013-12-28,55.0,44.6,39.2,38.0,34.9,32.2,73,61,36,30.09,29.64,7,3,11,0.00
2013-12-29,56.3,47.2,42.1,56.1,42.9,34.3,99,82,49,29.90,29.11,13,4,21,0.53
2013-12-30,45.9,41.2,34.2,41.6,35.9,23.8,93,76,53,29.93,29.29,7,3,13,0.01
2013-12-31,43.2,35.8,29.8,33.4,24.7,19.4,65,53,43,30.10,29.67,13,3,18,0.00
2014-1-1,44.2,35.4,26.1,37.1,26.3,16.1,87,61,41,30.19,29.67,4,1,8,0.00
2014-1-2,40.8,34.2,29.1,38.5,32.1,28.1,97,89,81,29.92,29.04,7,2,14,0.00